Regional Weather Roundup
Issued by NWS Goodland, KS

Home | Current Version | Previous Version | Text Only | Print | Product List | Glossary Off
Versions: 1 2 3 4 5 6 7 8 9 10 11 12 13 14 15 16 17 18 19 20 21 22 23 24 25 26 27 28 29 30 31 32 33 34 35 36 37 38 39 40 41 42 43 44 45 46 47 48 49 50

000
ASUS43 KGLD 232359
RWRGLD

GOODLAND FORECAST AREA HOURLY WEATHER ROUNDUP
NATIONAL WEATHER SERVICE GOODLAND KS
600 PM MDT THU MAR 23 2017

...OFFICIAL OBSERVATIONS...

CITY           SKY/WX    TMP DP  RH WIND       PRES   REMARKS
GOODLAND KS    CLOUDY    82  19   9 S17G26    29.45F
HILL CITY KS   CLOUDY    79  52  38 S25G41    29.51F HAZE
IMPERIAL NEB   CLOUDY    76  28  17 SE20G47   29.47F
MCCOOK NEB     SUNNY     81  52  36 SE21G33   29.43F
AKRON CO       CLOUDY    73  17  12 SW15G31   29.54R
BURLINGTON CO  CLOUDY    77  25  14 S30G39    29.49F
LIMON CO       CLOUDY    64  23  21 N5        29.56F
$$

...UNOFFICIAL OBSERVATIONS...

CITY           SKY/WX    TMP DP  RH WIND       PRES   REMARKS
LENORA KS        N/A     80  32  17 S16         N/A
NORTON KS      CLEAR     79  43  27 S24G35    29.49S
SHARON SPRINGS   N/A     82  28  14 SW16G30     N/A
TRENTON NEB      N/A     80  32  17 CALM        N/A
YUMA CO        FAIR      72  23  16 W14       29.51R
$$



USA.gov is the U.S. government's official web portal to all federal, state and local government web resources and services.